This is the latest recevied weather packets stored in our database for station/object KN6KS. If no packets are shown the sender has not sent any weather packets the latest 10 day(s).
| Time | Temp. | Humidity | Pressure | Rain* | Wind** | Luminosity | Snow |
|---|---|---|---|---|---|---|---|
| 1777904135 | 10° C | 75% | 1012.7 hPa | 0 mm | - | 83 W/m² | - |
| 1777903832 | 10° C | 76% | 1012.4 hPa | 0 mm | - | 78 W/m² | - |
| 1777903529 | 10° C | 76% | 1012.4 hPa | 0 mm | - | 67 W/m² | - |
| 1777903225 | 10° C | 76% | 1012.2 hPa | 0 mm | - | 56 W/m² | - |
| 1777902921 | 10° C | 76% | 1012.2 hPa | 0 mm | - | 54 W/m² | - |
| 1777902618 | 10° C | 77% | 1012 hPa | 0 mm | - | 51 W/m² | - |
| 1777902315 | 10° C | 77% | 1012.2 hPa | 0 mm | - | 45 W/m² | - |
| 1777902012 | 10° C | 78% | 1012.1 hPa | 0 mm | - | 35 W/m² | - |
| 1777901711 | 10° C | 77% | 1012.1 hPa | 0 mm | - | 26 W/m² | - |
| 1777901408 | 10° C | 78% | 1012.2 hPa | 0 mm | - | 23 W/m² | - |
| 1777901105 | 10° C | 78% | 1012.1 hPa | 0 mm | - | 16 W/m² | - |
| 1777900803 | 10° C | 78% | 1012.1 hPa | 0 mm | - | 11 W/m² | - |
| 1777900500 | 10° C | 78% | 1012.1 hPa | 0 mm | - | 8 W/m² | - |
| 1777900197 | 10° C | 78% | 1012.4 hPa | 0 mm | - | 5 W/m² | - |
| 1777899893 | 10° C | 78% | 1012 hPa | 0 mm | - | 2 W/m² | - |
| 1777899589 | 10° C | 77% | 1012.1 hPa | 0 mm | - | 0 W/m² | - |
| 1777899287 | 10° C | 76% | 1012 hPa | 0 mm | - | 0 W/m² | - |
| 1777898985 | 10° C | 75% | 1011.8 hPa | 0 mm | - | 0 W/m² | - |
| 1777898682 | 10° C | 75% | 1011.9 hPa | 0 mm | - | 0 W/m² | - |
| 1777898379 | 10° C | 75% | 1012 hPa | 0 mm | - | 0 W/m² | - |
| 1777898077 | 10° C | 74% | 1012.1 hPa | 0 mm | - | 0 W/m² | - |
| 1777897773 | 10° C | 74% | 1011.6 hPa | 0 mm | - | 0 W/m² | - |
| 1777897469 | 10° C | 74% | 1011.7 hPa | 0 mm | - | 0 W/m² | - |
| 1777897165 | 10° C | 74% | 1011.8 hPa | 0 mm | - | 0 W/m² | - |
| 1777896861 | 10° C | 74% | 1011.6 hPa | 0 mm | - | 0 W/m² | - |
* Rain latest hour (hover to see other rain measurements)
** Current wind speed in m/s (hover to see current wind gust speed)